| time (UTC) | temp F | wind direction | speed MPH | gust MPH | rain 1hr in | rain 24hr in | rain mn in | humidity % | barometer mb |
| 20260510144528 | 71 | 262 | 7.0 | 12.0 | 0.00 | 0.00 | 0.00 | 54 | 1006.5 |
| 20260510143030 | 71 | 229 | 5.0 | 12.0 | 0.00 | 0.00 | 0.00 | 55 | 1006.6 |
| 20260510141524 | 71 | 273 | 4.0 | 11.0 | 0.00 | 0.00 | 0.00 | 54 | 1007.0 |
| 20260510140022 | 71 | 229 | 4.0 | 10.0 | 0.00 | 0.00 | 0.00 | 53 | 1007.3 |
| 20260510134523 | 72 | 191 | 5.0 | 10.0 | 0.00 | 0.00 | 0.00 | 53 | 1007.7 |
| 20260510133021 | 72 | 234 | 5.0 | 13.0 | 0.00 | 0.00 | 0.00 | 53 | 1007.9 |
| 20260510131518 | 73 | 225 | 3.0 | 11.0 | 0.00 | 0.00 | 0.00 | 53 | 1008.1 |
| 20260510130016 | 73 | 273 | 7.0 | 12.0 | 0.00 | 0.00 | 0.00 | 51 | 1008.4 |
| 20260510124514 | 72 | 257 | 8.0 | 13.0 | 0.00 | 0.00 | 0.00 | 51 | 1008.5 |
| 20260510123014 | 73 | 288 | 3.0 | 11.0 | 0.00 | 0.00 | 0.00 | 49 | 1008.6 |
| 20260510121512 | 74 | 222 | 2.0 | 12.0 | 0.00 | 0.00 | 0.00 | 50 | 1008.8 |
| 20260510120007 | 72 | 290 | 6.0 | 12.0 | 0.00 | 0.00 | 0.00 | 52 | 1008.9 |
| 20260510114506 | 71 | 265 | 6.0 | 10.0 | 0.00 | 0.00 | 0.00 | 51 | 1009.1 |
| 20260510113005 | 71 | 221 | 6.0 | 12.0 | 0.00 | 0.00 | 0.00 | 54 | 1009.3 |
| 20260510111504 | 71 | 262 | 3.0 | 10.0 | 0.00 | 0.00 | 0.00 | 55 | 1009.3 |
| 20260510110003 | 71 | 267 | 7.0 | 10.0 | 0.00 | 0.00 | 0.00 | 55 | 1009.6 |
| 20260510104500 | 71 | 266 | 5.0 | 10.0 | 0.00 | 0.00 | 0.00 | 55 | 1009.6 |
| 20260510103110 | 72 | 274 | 4.0 | 10.0 | 0.00 | 0.00 | 0.00 | 55 | 1009.7 |
| 20260510101558 | 72 | 275 | 6.0 | 10.0 | 0.00 | 0.00 | 0.00 | 56 | 1009.9 |
| 20260510100057 | 71 | 244 | 4.0 | 11.0 | 0.00 | 0.00 | 0.00 | 57 | 1009.9 |
| 20260510094554 | 71 | 209 | 5.0 | 11.0 | 0.00 | 0.00 | 0.00 | 57 | 1010.1 |
| 20260510093103 | 71 | 242 | 5.0 | 9.0 | 0.00 | 0.00 | 0.00 | 55 | 1010.3 |
| 20260510091549 | 70 | 325 | 3.0 | 8.0 | 0.00 | 0.00 | 0.00 | 58 | 1010.4 |
| 20260510090054 | 69 | 281 | 4.0 | 8.0 | 0.00 | 0.00 | 0.00 | 59 | 1010.5 |
| 20260510084539 | 67 | 273 | 5.0 | 9.0 | 0.00 | 0.00 | 0.00 | 61 | 1010.8 |
| 20260510083036 | 66 | 263 | 4.0 | 9.0 | 0.00 | 0.00 | 0.00 | 63 | 1010.9 |
| 20260510081532 | 65 | 280 | 5.0 | 10.0 | 0.00 | 0.00 | 0.00 | 64 | 1010.9 |
| 20260510080037 | 63 | 273 | 4.0 | 11.0 | 0.00 | 0.00 | 0.00 | 66 | 1011.0 |
| 20260510074523 | 62 | 268 | 5.0 | 11.0 | 0.00 | 0.00 | 0.00 | 68 | 1011.1 |
| 20260510073019 | 60 | 269 | 4.0 | 10.0 | 0.00 | 0.00 | 0.00 | 70 | 1011.0 |
| 20260510071517 | 59 | 259 | 5.0 | 10.0 | 0.00 | 0.00 | 0.00 | 72 | 1010.9 |
| 20260510070013 | 58 | 267 | 5.0 | 10.0 | 0.00 | 0.00 | 0.00 | 72 | 1011.1 |
| 20260510064512 | 56 | 273 | 7.0 | 11.0 | 0.00 | 0.00 | 0.00 | 76 | 1011.2 |
| 20260510063013 | 55 | 269 | 4.0 | 10.0 | 0.00 | 0.00 | 0.00 | 76 | 1011.3 |
| 20260510061511 | 55 | 269 | 7.0 | 10.0 | 0.00 | 0.00 | 0.00 | 76 | 1011.2 |
| 20260510060010 | 54 | 246 | 5.0 | 9.0 | 0.00 | 0.00 | 0.00 | 78 | 1011.0 |
| 20260510054508 | 53 | 265 | 5.0 | 11.0 | 0.00 | 0.00 | 0.00 | 79 | 1011.2 |
| 20260510053007 | 52 | 246 | 5.0 | 10.0 | 0.00 | 0.00 | 0.00 | 80 | 1011.3 |
| 20260510051507 | 52 | 265 | 5.0 | 9.0 | 0.00 | 0.00 | 0.00 | 81 | 1011.4 |
| 20260510050006 | 51 | 260 | 4.0 | 10.0 | 0.00 | 0.00 | 0.00 | 81 | 1011.4 |
| 20260510044504 | 51 | 272 | 5.0 | 10.0 | 0.00 | 0.00 | 0.00 | 81 | 1011.4 |
| 20260510043004 | 51 | 233 | 5.0 | 11.0 | 0.00 | 0.00 | 0.00 | 82 | 1011.6 |
| 20260510041501 | 51 | 247 | 4.0 | 9.0 | 0.00 | 0.00 | 0.00 | 82 | 1011.5 |
| 20260510034601 | 51 | 273 | 6.0 | 9.0 | 0.00 | 0.00 | 0.00 | 81 | 1011.7 |
| 20260510033059 | 51 | 254 | 5.0 | 10.0 | 0.00 | 0.00 | 0.00 | 81 | 1011.9 |
| 20260510031555 | 52 | 264 | 4.0 | 11.0 | 0.00 | 0.00 | 0.00 | 80 | 1011.9 |
| 20260510030052 | 52 | 261 | 5.0 | 10.0 | 0.00 | 0.00 | 0.00 | 80 | 1011.9 |
| 20260510024551 | 52 | 263 | 7.0 | 10.0 | 0.00 | 0.00 | 0.00 | 80 | 1012.1 |
| 20260510023052 | 52 | 265 | 6.0 | 10.0 | 0.00 | 0.00 | 0.00 | 80 | 1012.3 |
| 20260510021546 | 52 | 247 | 6.0 | 10.0 | 0.00 | 0.00 | 0.00 | 80 | 1012.3 |
| 20260510020044 | 53 | 253 | 5.0 | 10.0 | 0.00 | 0.00 | 0.00 | 79 | 1012.4 |
| 20260510014543 | 53 | 274 | 5.0 | 9.0 | 0.00 | 0.00 | 0.00 | 79 | 1012.5 |
| 20260510013038 | 53 | 269 | 5.0 | 9.0 | 0.00 | 0.00 | 0.00 | 78 | 1012.7 |
| 20260510011536 | 54 | 260 | 5.0 | 9.0 | 0.00 | 0.00 | 0.00 | 78 | 1012.7 |
| 20260510010033 | 54 | 264 | 4.0 | 8.0 | 0.00 | 0.00 | 0.00 | 77 | 1012.9 |
| 20260510004531 | 54 | 262 | 4.0 | 9.0 | 0.00 | 0.00 | 0.00 | 76 | 1012.9 |
| 20260510003030 | 55 | 273 | 6.0 | 9.0 | 0.00 | 0.00 | 0.00 | 76 | 1012.9 |
| 20260510001528 | 55 | 275 | 4.0 | 8.0 | 0.00 | 0.00 | 0.00 | 76 | 1012.9 |
| 20260510000026 | 55 | 267 | 4.0 | 8.0 | 0.00 | 0.00 | 0.00 | 75 | 1013.2 |
| 20260509234525 | 55 | 268 | 4.0 | 8.0 | 0.00 | 0.00 | 0.00 | 75 | 1013.3 |
| 20260509233025 | 56 | 270 | 4.0 | 8.0 | 0.00 | 0.00 | 0.00 | 74 | 1013.4 |
| 20260509231518 | 56 | 269 | 5.0 | 8.0 | 0.00 | 0.00 | 0.00 | 73 | 1013.5 |
| 20260509230019 | 56 | 287 | 5.0 | 9.0 | 0.00 | 0.00 | 0.00 | 73 | 1013.5 |
| 20260509224513 | 56 | 269 | 4.0 | 7.0 | 0.00 | 0.00 | 0.00 | 72 | 1013.5 |
| 20260509223014 | 57 | 278 | 5.0 | 8.0 | 0.00 | 0.00 | 0.00 | 70 | 1013.5 |
| 20260509221511 | 58 | 268 | 4.0 | 9.0 | 0.00 | 0.00 | 0.00 | 69 | 1013.6 |
| 20260509220005 | 58 | 289 | 5.0 | 9.0 | 0.00 | 0.00 | 0.00 | 68 | 1013.6 |
| 20260509214504 | 58 | 304 | 5.0 | 8.0 | 0.00 | 0.00 | 0.00 | 68 | 1013.8 |
| 20260509213004 | 59 | 281 | 4.0 | 9.0 | 0.00 | 0.00 | 0.00 | 67 | 1013.9 |
| 20260509211503 | 59 | 267 | 4.0 | 7.0 | 0.00 | 0.00 | 0.00 | 67 | 1014.0 |
| 20260509210004 | 59 | 277 | 4.0 | 8.0 | 0.00 | 0.00 | 0.00 | 66 | 1014.0 |
| 20260509204502 | 59 | 272 | 3.0 | 5.0 | 0.00 | 0.00 | 0.00 | 66 | 1014.1 |
| 20260509203001 | 59 | 272 | 4.0 | 7.0 | 0.00 | 0.00 | 0.00 | 65 | 1014.2 |
| 20260509201500 | 59 | 266 | 3.0 | 4.0 | 0.00 | 0.00 | 0.00 | 64 | 1014.2 |
| 20260509200002 | 60 | 265 | 3.0 | 5.0 | 0.00 | 0.00 | 0.00 | 64 | 1014.0 |
| 20260509194600 | 61 | 262 | 2.0 | 4.0 | 0.00 | 0.00 | 0.00 | 64 | 1014.0 |
| 20260509193136 | 62 | 262 | 2.0 | 3.0 | 0.00 | 0.00 | 0.00 | 63 | 1013.9 |
| 20260509191615 | 63 | 262 | 1.0 | 3.0 | 0.00 | 0.00 | 0.00 | 60 | 1013.9 |
| 20260509190106 | 64 | 262 | 1.0 | 4.0 | 0.00 | 0.00 | 0.00 | 58 | 1013.9 |
| 20260509184600 | 65 | 262 | 1.0 | 6.0 | 0.00 | 0.00 | 0.00 | 56 | 1013.9 |
| 20260509183058 | 66 | 263 | 2.0 | 5.0 | 0.00 | 0.00 | 0.00 | 55 | 1013.9 |
| 20260509181601 | 67 | 258 | 3.0 | 5.0 | 0.00 | 0.00 | 0.00 | 53 | 1013.7 |
| 20260509180105 | 67 | 320 | 2.0 | 7.0 | 0.00 | 0.00 | 0.00 | 50 | 1013.8 |
| 20260509174556 | 68 | 283 | 1.0 | 4.0 | 0.00 | 0.00 | 0.00 | 51 | 1013.7 |
| 20260509173103 | 68 | 265 | 2.0 | 6.0 | 0.00 | 0.00 | 0.00 | 50 | 1013.8 |
| 20260509171555 | 69 | 340 | 3.0 | 5.0 | 0.00 | 0.00 | 0.00 | 48 | 1013.6 |
| 20260509170058 | 69 | 321 | 4.0 | 7.0 | 0.00 | 0.00 | 0.00 | 49 | 1013.8 |
| 20260509164601 | 69 | 300 | 3.0 | 8.0 | 0.00 | 0.00 | 0.00 | 46 | 1013.7 |
| 20260509163051 | 70 | 350 | 5.0 | 10.0 | 0.00 | 0.00 | 0.00 | 48 | 1013.9 |
| 20260509161556 | 70 | 309 | 4.0 | 9.0 | 0.00 | 0.00 | 0.00 | 47 | 1013.8 |
| 20260509160050 | 70 | 325 | 5.0 | 10.0 | 0.00 | 0.00 | 0.00 | 48 | 1014.0 |
| 20260509154548 | 70 | 295 | 4.0 | 9.0 | 0.00 | 0.00 | 0.00 | 47 | 1014.2 |
| 20260509153048 | 70 | 356 | 10.0 | 13.0 | 0.00 | 0.00 | 0.00 | 47 | 1014.1 |
| 20260509151547 | 70 | 33 | 1.0 | 9.0 | 0.00 | 0.00 | 0.00 | 47 | 1014.3 |
| 20260509150046 | 70 | 294 | 3.0 | 9.0 | 0.00 | 0.00 | 0.00 | 47 | 1014.6 |